Breckenridge, CO

6:05 PM MDT on August 24, 2016 (GMT -0600)
Copper Mountain

Weather History for KCCU - May, 2013

Change the Weather History Date:

Thursday, May 30, 2013

  Actual Average Record
Temperature  
Mean Temperature 32 °F -  
Max Temperature 37 °F - 53 °F (2003)
Min Temperature 28 °F - 15 °F (2004)
Degree Days  
Heating Degree Days 32    
Month to date heating degree days  
Moisture  
Dew Point 25 °F    
Average Humidity 76    
Maximum Humidity 87    
Minimum Humidity 45    
Precipitation  
Precipitation 0.00 in - 0.26 in (2014)
Sea Level Pressure  
Sea Level Pressure 30.05 in    
Wind  
Wind Speed 25 mph (West)    
Max Wind Speed 39 mph    
Max Gust Speed 52 mph    
Visibility 3 miles    
Events Snow    
T = Trace of Precipitation, MM = Missing Value Source: NWS Daily Summary

Daily Weather History Graph

Daily Weather History Graph

Search for Another Location

Airport or City:

Trip Planner

Search our weather history database for the weather conditions in past years. The results will help you decide how hot, cold, wet, or windy it might be!

Date:

Astronomy

May. 30, 2013 Rise Set
Actual Time 5:40 AM MDT 8:24 PM MDT
Civil Twilight 5:08 AM MDT 8:56 PM MDT
Nautical Twilight 4:28 AM MDT 9:36 PM MDT
Astronomical Twilight 3:43 AM MDT 10:21 PM MDT
Moon 12:28 AM MDT (5/30) 11:50 AM MDT (5/30)
Length of Visible Light 15h 47m
Length of Day
14h 44m
Waning Gibbous, 61% of the Moon is Illuminated
May 30
Waning Gibbous
May 31
Last Quarter
Jun 8
New
Jun 16
First Quarter
Jun 23
Full

Hourly Weather History & Observations

Time (MDT) Temp. Windchill Dew Point Humidity Pressure Visibility Wind Dir Wind Speed Gust Speed Precip Events Conditions
12:12 AM 30.2 °F 17.1 °F 26.6 °F 86% 30.01 in 0.2 mi West 21.9 mph 39.1 mph N/A Snow Heavy Snow
12:32 AM 30.2 °F 16.8 °F 26.6 °F 86% 30.00 in - West 23.0 mph 32.2 mph N/A Snow Light Snow
12:52 AM 30.2 °F 16.5 °F 26.6 °F 86% 30.01 in - West 24.2 mph 27.6 mph N/A   Overcast
1:12 AM 30.2 °F 18.9 °F 26.6 °F 86% 30.01 in 3.0 mi West 16.1 mph 32.2 mph N/A   Overcast
1:32 AM 30.2 °F 15.9 °F 26.6 °F 86% 29.99 in 5.0 mi West 26.5 mph 32.2 mph N/A Snow Light Snow
1:52 AM 30.2 °F 15.4 °F 26.6 °F 86% 29.98 in 2.0 mi West 28.8 mph 34.5 mph N/A Snow Light Snow
2:12 AM 30.2 °F 15.2 °F 26.6 °F 86% 29.98 in 2.0 mi West 29.9 mph 36.8 mph N/A Snow Light Snow
2:32 AM 30.2 °F 15.7 °F 26.6 °F 86% 29.98 in - West 27.6 mph 35.7 mph N/A   Overcast
2:52 AM 30.2 °F 15.9 °F 26.6 °F 86% 29.98 in - West 26.5 mph 32.2 mph N/A   Overcast
3:12 AM 30.2 °F 14.5 °F 26.6 °F 86% 29.96 in - West 33.4 mph 39.1 mph N/A   Overcast
3:32 AM 30.2 °F 16.5 °F 26.6 °F 86% 29.97 in - West 24.2 mph 34.5 mph N/A   Overcast
3:52 AM 30.2 °F 15.7 °F 26.6 °F 86% 29.96 in - West 27.6 mph 36.8 mph N/A   Unknown
4:12 AM 28.4 °F 12.5 °F 24.8 °F 86% 29.96 in - West 31.1 mph 44.9 mph N/A   Unknown
4:32 AM 30.2 °F 16.8 °F 26.6 °F 86% 29.98 in 2.0 mi West 23.0 mph 36.8 mph N/A Snow Light Snow
4:52 AM 30.2 °F 15.9 °F 26.6 °F 86% 29.97 in 2.5 mi West 26.5 mph 33.4 mph N/A Snow Light Snow
5:12 AM 30.2 °F 16.2 °F 26.6 °F 86% 29.98 in 3.0 mi West 25.3 mph 35.7 mph N/A   Overcast
5:32 AM 30.2 °F 15.9 °F 26.6 °F 86% 29.98 in - West 26.5 mph 32.2 mph N/A   Overcast
5:52 AM 30.2 °F 16.8 °F 26.6 °F 86% 29.98 in - West 23.0 mph 29.9 mph N/A   Overcast
6:12 AM 30.2 °F 16.2 °F 26.6 °F 86% 29.98 in - West 25.3 mph 32.2 mph N/A   Overcast
6:32 AM 30.2 °F 17.4 °F 26.6 °F 86% 29.99 in - West 20.7 mph 29.9 mph N/A   Overcast
6:52 AM 28.4 °F 15.1 °F 24.8 °F 86% 30.00 in - West 20.7 mph 36.8 mph N/A   Overcast
7:12 AM 30.2 °F 17.4 °F 24.8 °F 80% 29.99 in - West 20.7 mph 26.5 mph N/A   Overcast
7:32 AM 30.2 °F 15.4 °F 26.6 °F 86% 30.00 in - West 28.8 mph 34.5 mph N/A   Overcast
7:52 AM 30.2 °F 17.1 °F 26.6 °F 86% 30.00 in - West 21.9 mph 27.6 mph N/A   Overcast
8:12 AM 30.2 °F 17.1 °F 26.6 °F 86% 30.02 in - West 21.9 mph 28.8 mph N/A   Overcast
8:32 AM 28.4 °F 13.3 °F 23.0 °F 80% 30.01 in - West 27.6 mph 33.4 mph N/A   Overcast
8:52 AM 28.4 °F 15.4 °F 23.0 °F 80% 30.02 in - West 19.6 mph 27.6 mph N/A   Overcast
9:12 AM 28.4 °F 14.1 °F 23.0 °F 80% 30.02 in - West 24.2 mph 32.2 mph N/A   Overcast
9:32 AM 28.4 °F 14.1 °F 23.0 °F 80% 30.03 in - West 24.2 mph 35.7 mph N/A   Overcast
9:52 AM 28.4 °F 13.3 °F 23.0 °F 80% 30.03 in - West 27.6 mph 34.5 mph N/A   Overcast
10:12 AM 30.2 °F 16.2 °F 24.8 °F 80% 30.03 in - West 25.3 mph 39.1 mph N/A   Overcast
10:32 AM 30.2 °F 15.9 °F 26.6 °F 86% 30.03 in - West 26.5 mph 39.1 mph N/A   Overcast
10:52 AM 32.0 °F 19.5 °F 26.6 °F 80% 30.04 in - WSW 21.9 mph 29.9 mph N/A   Overcast
11:12 AM 32.0 °F 18.9 °F 19.4 °F 60% 30.03 in 0.8 mi West 24.2 mph 48.3 mph N/A Snow Light Snow
11:32 AM 32.0 °F 19.8 °F 26.6 °F 80% 30.05 in 4.0 mi West 20.7 mph 26.5 mph N/A Snow Light Snow
11:52 AM 32.0 °F 18.4 °F 26.6 °F 80% 30.05 in 2.0 mi West 26.5 mph 33.4 mph N/A Snow Light Snow
12:12 PM 33.8 °F 21.3 °F 24.8 °F 70% 30.05 in 3.0 mi West 24.2 mph 34.5 mph N/A Snow Light Snow
12:32 PM 33.8 °F 21.6 °F 23.0 °F 65% 30.05 in 4.0 mi West 23.0 mph 33.4 mph N/A   Haze
12:52 PM 33.8 °F 19.9 °F 28.4 °F 81% 30.04 in 7.0 mi West 31.1 mph 34.5 mph N/A Snow Light Snow
1:12 PM 33.8 °F 20.3 °F 23.0 °F 65% 30.05 in 2.5 mi West 28.8 mph 39.1 mph N/A Snow Light Snow
1:32 PM 33.8 °F 20.3 °F 23.0 °F 65% 30.05 in 2.5 mi West 28.8 mph 39.1 mph N/A   Haze
1:52 PM 33.8 °F 19.6 °F 19.4 °F 56% 30.05 in 2.0 mi West 32.2 mph 43.7 mph N/A   Haze
2:12 PM 33.8 °F 19.9 °F 21.2 °F 60% 30.06 in 2.5 mi West 31.1 mph 38.0 mph N/A   Overcast
2:32 PM 33.8 °F 20.8 °F 21.2 °F 60% 30.06 in 1.0 mi West 26.5 mph 44.9 mph N/A Snow Light Snow
2:52 PM 33.8 °F 18.5 °F 19.4 °F 56% 30.05 in 2.0 mi West 39.1 mph 44.9 mph N/A Snow Light Snow
3:12 PM 35.6 °F 21.0 °F 19.4 °F 52% 30.06 in 2.5 mi West 39.1 mph 46.0 mph N/A   Haze
3:32 PM 35.6 °F 22.5 °F 19.4 °F 52% 30.07 in 5.0 mi West 29.9 mph 42.6 mph N/A   Haze
3:52 PM 35.6 °F 24.0 °F 21.2 °F 56% 30.07 in 7.0 mi West 23.0 mph 33.4 mph N/A   Overcast
4:12 PM 37.4 °F 26.4 °F 21.2 °F 52% 30.07 in 10.0 mi West 23.0 mph 31.1 mph N/A   Overcast
4:32 PM 35.6 °F 21.9 °F 17.6 °F 48% 30.07 in 0.8 mi West 33.4 mph 51.8 mph N/A Snow Light Snow
4:52 PM 37.4 °F 25.2 °F 17.6 °F 45% 30.07 in 1.0 mi West 28.8 mph 44.9 mph N/A Snow Light Snow
5:12 PM 37.4 °F 24.8 °F 17.6 °F 45% 30.07 in 5.0 mi West 31.1 mph 35.7 mph N/A   Haze
5:32 PM 35.6 °F 23.4 °F 17.6 °F 48% 30.08 in 10.0 mi West 25.3 mph 33.4 mph N/A   Overcast
5:52 PM 35.6 °F 22.5 °F 19.4 °F 52% 30.08 in 5.0 mi West 29.9 mph 39.1 mph N/A   Haze
6:12 PM 35.6 °F 23.2 °F 19.4 °F 52% 30.10 in 7.0 mi West 26.5 mph 32.2 mph N/A   Overcast
6:32 PM 33.8 °F 21.3 °F 28.4 °F 81% 30.10 in 0.2 mi West 24.2 mph 39.1 mph N/A Snow Snow
6:52 PM 33.8 °F 20.3 °F 28.4 °F 81% 30.09 in 0.2 mi WSW 28.8 mph 38.0 mph N/A Snow Light Snow
7:12 PM 32.0 °F 18.4 °F 28.4 °F 87% 30.12 in 0.5 mi West 26.5 mph 32.2 mph N/A Snow Snow
7:32 PM 33.8 °F 21.9 °F 28.4 °F 81% 30.11 in 1.2 mi WSW 21.9 mph 31.1 mph N/A Snow Light Snow
7:52 PM 33.8 °F 22.5 °F 26.6 °F 75% 30.12 in 3.0 mi WSW 19.6 mph 32.2 mph N/A Snow Light Snow
8:12 PM 32.0 °F 22.1 °F 28.4 °F 87% 30.14 in 0.5 mi SW 13.8 mph 27.6 mph N/A Snow Light Snow
8:32 PM 33.8 °F 20.3 °F 28.4 °F 81% 30.12 in 0.5 mi WSW 28.8 mph 42.6 mph N/A Snow Snow
8:52 PM 33.8 °F 20.3 °F 28.4 °F 81% 30.14 in 0.2 mi West 28.8 mph 35.7 mph N/A Snow Heavy Snow
9:12 PM 32.0 °F 19.5 °F 28.4 °F 87% 30.15 in 0.8 mi West 21.9 mph 27.6 mph N/A Snow Light Snow
9:32 PM 32.0 °F 19.2 °F 28.4 °F 87% 30.16 in 0.2 mi West 23.0 mph 31.1 mph N/A Snow Heavy Snow
9:52 PM 32.0 °F 18.4 °F 28.4 °F 87% 30.17 in 0.2 mi West 26.5 mph 34.5 mph N/A Snow Snow
10:12 PM 32.0 °F 19.2 °F 28.4 °F 87% 30.16 in 0.5 mi West 23.0 mph 28.8 mph N/A Snow Light Snow
10:32 PM 32.0 °F 19.8 °F 28.4 °F 87% 30.17 in 1.0 mi West 20.7 mph 28.8 mph N/A Snow Light Snow
10:52 PM 32.0 °F 19.5 °F 26.6 °F 80% 30.18 in 1.2 mi West 21.9 mph 26.5 mph N/A Snow Light Snow
11:12 PM 32.0 °F 18.9 °F 26.6 °F 80% 30.18 in 1.0 mi West 24.2 mph 31.1 mph N/A Snow Light Snow
11:32 PM 32.0 °F 19.8 °F 26.6 °F 80% 30.18 in 7.0 mi West 20.7 mph 28.8 mph N/A   Overcast
11:52 PM 32.0 °F 20.1 °F 26.6 °F 80% 30.18 in 10.0 mi West 19.6 mph - N/A   Overcast